Weather in Lozova

Ukraine / Kharkiv Region     50°08′42″N   35°34′01″E
temp.,
°C
wind,
m/s
gust,
m/s
humid.,
%
clouds,
%
prec.,
mm/h
press.,
hPa
HPBL,
m
13 may, thu
thu1300:00+7ese5109699 0.5 1013279
03:00+6se410979 0.9 1013276
06:00+6se49955 0.0 1013261
09:00+11sse587899 0.0 1014664
12:00+15s575767 0.0 10131476
15:00+17s5650100 0.0 10131599
18:00+17s3659100 0.0 1013521
21:00+13se2269100 0.0 101310
14 may, fri
fri1400:00+12e347163 0.0 101360
03:00+11e4884100 0.0 1012130
06:00+12ese41091100 0.1 1012207
09:00+17se68805 0.3 1011488
12:00+22se6868100 0.1 10101137
15:00+24sse7960100 0.1 10091724
18:00+22sse51071100 0.9 1008426
21:00+17ssw3679100 1.2 100993
15 may, sat
sat1500:00+15ssw35805 0.0 101079
03:00+13sw3490100 0.0 101061
06:00+12sw35935 0.0 1011120
09:00+17sw347419 0.0 1011579
12:00+20sw345811 0.1 10131487
15:00+21ssw3653100 0.8 10121946
18:00+18w23718 0.4 1012129
21:00+16se117622 0.9 101311
16 may, sun
sun1600:00+14sw1181100 0.0 101311
03:00+13nnw1184100 0.0 101310
06:00+13ene33875 0.0 101347
09:00+19ene346991 0.0 1013362
12:00+23e445487 0.0 10131272
15:00+24e455189 0.0 10111630
18:00+22ene5865100 0.0 1010462
21:00+17ne51389100 0.9 1008297
17 may, mon
mon1700:00+16ene51390100 0.3 1007262
03:00+15ene51486100 0.3 1006287
06:00+15ese6148350 0.0 1004281
09:00+19ese71764100 0.0 1004668
12:00+22se8105499 0.0 10041014
15:00+22se796362 0.2 10041067
18:00+21sse61075100 0.7 1005378
21:00+18s4890100 1.7 1006184